KLM12B EHAM-LFPG

Flight info

Callsign KLM12B
Flight time 0h 47m
Altitude 29000
Route WOODY N872 DENOX DCT SISGA DCT DELOM DCT MOPIL
Aircraft B738/M-SDE2E3FGHIRWXY/LB1

Departure

Time 2026-05-06 18:50
Airport Amsterdam Airport Schiphol (EHAM)

Arrival

Time 2026-05-06 19:37
Airport Charles de Gaulle International Airport (LFPG)
Time Latitude Longitude Altitude Speed Heading
2026-05-06 18:32 52.30900 4.77176 -1 ft 0 kts
2026-05-06 18:37 52.30882 4.77174 -1 ft 2 kts
2026-05-06 18:37 52.30867 4.77173 -1 ft 2 kts
2026-05-06 18:38 52.30850 4.77158 0 ft 2 kts 57°
2026-05-06 18:38 52.30846 4.77137 0 ft 0 kts 91°
2026-05-06 18:38 52.30846 4.77125 0 ft 0 kts 95°
2026-05-06 18:41 52.30846 4.77138 -1 ft 6 kts 94°
2026-05-06 18:41 52.30841 4.77259 -1 ft 11 kts 93°
2026-05-06 18:41 52.30837 4.77389 0 ft 11 kts 95°
2026-05-06 18:41 52.30780 4.77462 0 ft 12 kts 177°
2026-05-06 18:42 52.30689 4.77454 -1 ft 13 kts 190°
2026-05-06 18:42 52.30601 4.77317 -1 ft 22 kts 238°
2026-05-06 18:42 52.30519 4.77105 -1 ft 22 kts 238°
2026-05-06 18:42 52.30440 4.76896 0 ft 18 kts 239°
2026-05-06 18:43 52.30376 4.76733 -1 ft 16 kts 238°
2026-05-06 18:43 52.30306 4.76550 0 ft 20 kts 238°
2026-05-06 18:43 52.30233 4.76359 -1 ft 20 kts 239°
2026-05-06 18:43 52.30158 4.76162 -1 ft 20 kts 237°
2026-05-06 18:44 52.30082 4.75967 -1 ft 21 kts 239°
2026-05-06 18:44 52.29997 4.75745 -1 ft 25 kts 239°
2026-05-06 18:44 52.29899 4.75490 -1 ft 26 kts 238°
2026-05-06 18:44 52.29836 4.75236 -1 ft 23 kts 284°
2026-05-06 18:45 52.29933 4.75024 -1 ft 23 kts 312°
2026-05-06 18:45 52.30038 4.74830 -1 ft 22 kts 311°
2026-05-06 18:45 52.30137 4.74647 -1 ft 20 kts 311°
2026-05-06 18:45 52.30200 4.74531 -1 ft 20 kts 312°
2026-05-06 18:46 52.30270 4.74402 -1 ft 10 kts 310°
2026-05-06 18:46 52.30327 4.74293 -1 ft 13 kts 311°
2026-05-06 18:46 52.30371 4.74174 -1 ft 12 kts 254°
2026-05-06 18:46 52.30322 4.74058 -1 ft 12 kts 233°
2026-05-06 18:47 52.30260 4.73961 -1 ft 12 kts 218°
2026-05-06 18:47 52.30228 4.73921 -1 ft 0 kts 218°
2026-05-06 18:48 52.30226 4.73918 -1 ft 2 kts 218°
2026-05-06 18:49 52.30193 4.73863 -1 ft 9 kts 238°
2026-05-06 18:49 52.30195 4.73756 -1 ft 9 kts 312°
2026-05-06 18:49 52.30264 4.73740 -1 ft 12 kts
2026-05-06 18:49 52.30590 4.73775 0 ft 92 kts
2026-05-06 18:50 52.31513 4.73849 71 ft 162 kts
2026-05-06 18:50 52.32599 4.73979 1300 ft 149 kts
2026-05-06 18:50 52.33660 4.74525 2155 ft 155 kts 32°
2026-05-06 18:50 52.34644 4.75403 2976 ft 159 kts 26°
2026-05-06 18:51 52.35753 4.76008 3564 ft 175 kts 18°
2026-05-06 18:51 52.36864 4.76934 4151 ft 189 kts 43°
2026-05-06 18:51 52.37623 4.78895 4176 ft 216 kts 66°
2026-05-06 18:51 52.37962 4.81311 4173 ft 226 kts 85°
2026-05-06 18:52 52.37574 4.83724 4177 ft 229 kts 118°
2026-05-06 18:52 52.36355 4.85462 4194 ft 238 kts 149°
2026-05-06 18:52 52.34753 4.86301 4362 ft 244 kts 168°
2026-05-06 18:52 52.33057 4.86371 4563 ft 248 kts 186°
2026-05-06 18:53 52.31316 4.85657 4812 ft 275 kts 196°
2026-05-06 18:53 52.29418 4.84876 5683 ft 283 kts 187°
2026-05-06 18:53 52.27434 4.84634 6800 ft 283 kts 180°
2026-05-06 18:53 52.25443 4.84658 7805 ft 287 kts 178°
2026-05-06 18:54 52.23379 4.84720 8841 ft 291 kts 179°
2026-05-06 18:54 52.21296 4.84742 9832 ft 295 kts 180°
2026-05-06 18:54 52.19232 4.84723 10638 ft 303 kts 181°
2026-05-06 18:54 52.17062 4.84681 11229 ft 319 kts 181°
2026-05-06 18:55 52.14595 4.84622 11898 ft 335 kts 182°
2026-05-06 18:55 52.12266 4.84089 12583 ft 343 kts 197°
2026-05-06 18:55 52.10033 4.82715 13498 ft 346 kts 205°
2026-05-06 18:55 52.07856 4.81059 14359 ft 350 kts 207°
2026-05-06 18:56 52.05658 4.79374 15164 ft 354 kts 206°
2026-05-06 18:56 52.03421 4.77729 15984 ft 358 kts 205°
2026-05-06 18:56 52.01123 4.76115 16797 ft 362 kts 204°
2026-05-06 18:56 51.98818 4.74552 17607 ft 365 kts 204°
2026-05-06 18:57 51.96449 4.72978 18419 ft 368 kts 204°
2026-05-06 18:57 51.94074 4.71417 19190 ft 371 kts 204°
2026-05-06 18:57 51.91651 4.69829 19941 ft 375 kts 204°
2026-05-06 18:57 51.89172 4.68206 20693 ft 378 kts 204°
2026-05-06 18:58 51.86669 4.66568 21419 ft 381 kts 204°
2026-05-06 18:58 51.84095 4.64883 22115 ft 384 kts 204°
2026-05-06 18:58 51.81339 4.63080 22836 ft 388 kts 204°
2026-05-06 18:58 51.78625 4.61307 23517 ft 391 kts 204°
2026-05-06 18:59 51.76055 4.59628 24158 ft 394 kts 204°
2026-05-06 18:59 51.73181 4.57756 24847 ft 398 kts 204°
2026-05-06 18:59 51.70294 4.55878 25649 ft 398 kts 204°
2026-05-06 18:59 51.67550 4.54094 25937 ft 401 kts 203°
2026-05-06 19:00 51.64896 4.52372 25937 ft 395 kts 203°
2026-05-06 19:00 51.62162 4.50602 25938 ft 392 kts 203°
2026-05-06 19:00 51.59580 4.48931 25938 ft 394 kts 203°
2026-05-06 19:00 51.57742 4.47743 25936 ft 394 kts 203°
2026-05-06 19:01 51.54089 4.45381 25935 ft 394 kts 203°
2026-05-06 19:01 51.51285 4.43571 25933 ft 394 kts 203°
2026-05-06 19:01 51.48701 4.41906 25933 ft 394 kts 203°
2026-05-06 19:01 51.46180 4.40282 25933 ft 395 kts 203°
2026-05-06 19:02 51.43446 4.38542 25931 ft 394 kts 202°
2026-05-06 19:02 51.40546 4.36926 25930 ft 395 kts 198°
2026-05-06 19:02 51.37627 4.35842 25931 ft 395 kts 192°
2026-05-06 19:02 51.34761 4.35132 25931 ft 396 kts 189°
2026-05-06 19:03 51.31990 4.34581 25931 ft 396 kts 188°
2026-05-06 19:03 51.29290 4.34083 25931 ft 396 kts 187°
2026-05-06 19:03 51.26334 4.33535 25955 ft 401 kts 187°
2026-05-06 19:03 51.23458 4.32982 26604 ft 402 kts 188°
2026-05-06 19:04 51.20741 4.32447 27609 ft 394 kts 188°
2026-05-06 19:04 51.18053 4.31906 28353 ft 392 kts 188°
2026-05-06 19:04 51.15341 4.31351 28889 ft 393 kts 188°
2026-05-06 19:05 51.10813 4.30415 28927 ft 393 kts 188°
2026-05-06 19:05 51.04558 4.29115 28929 ft 391 kts 188°
2026-05-06 19:06 50.99157 4.27992 28929 ft 392 kts 188°
2026-05-06 19:06 50.93778 4.26876 28929 ft 391 kts 188°
2026-05-06 19:07 50.88422 4.25766 28928 ft 390 kts 188°
2026-05-06 19:07 50.83051 4.24656 28927 ft 390 kts 188°
2026-05-06 19:08 50.77675 4.23549 28925 ft 390 kts 188°
2026-05-06 19:08 50.72323 4.22450 28924 ft 390 kts 188°
2026-05-06 19:09 50.66959 4.21351 28924 ft 390 kts 188°
2026-05-06 19:09 50.61586 4.20251 28923 ft 389 kts 188°
2026-05-06 19:10 50.56250 4.19163 28922 ft 389 kts 188°
2026-05-06 19:10 50.50913 4.18076 28919 ft 388 kts 187°
2026-05-06 19:11 50.45512 4.16981 28919 ft 389 kts 187°
2026-05-06 19:11 50.40065 4.15879 28919 ft 390 kts 187°
2026-05-06 19:12 50.34676 4.14796 28913 ft 390 kts 187°
2026-05-06 19:12 50.29319 4.13721 28907 ft 391 kts 187°
2026-05-06 19:13 50.23947 4.12643 28594 ft 389 kts 187°
2026-05-06 19:13 50.21298 4.12113 28098 ft 384 kts 187°
2026-05-06 19:13 50.18665 4.11587 27658 ft 379 kts 187°
2026-05-06 19:13 50.16077 4.11071 27128 ft 377 kts 187°
2026-05-06 19:14 50.13475 4.10594 26589 ft 374 kts 185°
2026-05-06 19:14 50.10891 4.10305 26107 ft 371 kts 183°
2026-05-06 19:14 50.08340 4.10135 25890 ft 363 kts 182°
2026-05-06 19:14 50.05817 4.10002 25905 ft 368 kts 182°
2026-05-06 19:15 50.03269 4.09865 25896 ft 372 kts 182°
2026-05-06 19:15 50.00676 4.09712 25897 ft 370 kts 182°
2026-05-06 19:15 49.98105 4.09547 25899 ft 370 kts 183°
2026-05-06 19:15 49.95571 4.09376 25671 ft 368 kts 183°
2026-05-06 19:16 49.92949 4.09192 25209 ft 364 kts 183°
2026-05-06 19:16 49.90139 4.08989 24741 ft 358 kts 183°
2026-05-06 19:16 49.87394 4.08787 24340 ft 351 kts 183°
2026-05-06 19:16 49.84582 4.08580 23791 ft 348 kts 184°
2026-05-06 19:17 49.82019 4.08392 23388 ft 343 kts 184°
2026-05-06 19:17 49.79519 4.08206 22934 ft 340 kts 184°
2026-05-06 19:17 49.76869 4.08008 22474 ft 335 kts 184°
2026-05-06 19:17 49.74210 4.07810 21724 ft 340 kts 184°
2026-05-06 19:18 49.71717 4.07625 21384 ft 333 kts 184°
2026-05-06 19:18 49.69176 4.07438 21014 ft 326 kts 183°
2026-05-06 19:18 49.66756 4.07264 20337 ft 331 kts 184°
2026-05-06 19:18 49.64328 4.06939 19923 ft 325 kts 189°
2026-05-06 19:19 49.62120 4.06054 19578 ft 318 kts 203°
2026-05-06 19:19 49.60139 4.04457 19263 ft 329 kts 214°
2026-05-06 19:19 49.58326 4.02269 18990 ft 329 kts 223°
2026-05-06 19:19 49.56566 3.99450 18376 ft 329 kts 231°
2026-05-06 19:20 49.55165 3.96518 17819 ft 328 kts 237°
2026-05-06 19:20 49.53826 3.93274 17311 ft 325 kts 239°
2026-05-06 19:20 49.52596 3.90179 16756 ft 325 kts 239°
2026-05-06 19:20 49.51399 3.87213 16264 ft 323 kts 239°
2026-05-06 19:21 49.50206 3.84313 15827 ft 321 kts 238°
2026-05-06 19:21 49.49022 3.81472 15395 ft 317 kts 239°
2026-05-06 19:21 49.47912 3.78565 14984 ft 314 kts 244°
2026-05-06 19:21 49.47058 3.75547 14569 ft 310 kts 251°
2026-05-06 19:22 49.46443 3.72380 14149 ft 306 kts 257°
2026-05-06 19:22 49.45950 3.69254 13750 ft 303 kts 258°
2026-05-06 19:22 49.45463 3.66102 13350 ft 301 kts 257°
2026-05-06 19:22 49.44967 3.62972 12933 ft 300 kts 257°
2026-05-06 19:23 49.44429 3.59737 12501 ft 298 kts 257°
2026-05-06 19:23 49.43873 3.56445 12095 ft 295 kts 257°
2026-05-06 19:23 49.43336 3.53279 11812 ft 289 kts 257°
2026-05-06 19:23 49.42813 3.50212 11703 ft 280 kts 257°
2026-05-06 19:24 49.42224 3.47167 11618 ft 297 kts 250°
2026-05-06 19:24 49.41089 3.44328 11403 ft 304 kts 225°
2026-05-06 19:24 49.39362 3.42442 11325 ft 299 kts 210°
2026-05-06 19:24 49.37526 3.41007 11174 ft 301 kts 207°
2026-05-06 19:25 49.35646 3.39592 10933 ft 298 kts 208°
2026-05-06 19:25 49.33818 3.38142 10725 ft 290 kts 210°
2026-05-06 19:25 49.32084 3.36701 10525 ft 283 kts 210°
2026-05-06 19:25 49.30370 3.35234 10323 ft 276 kts 211°
2026-05-06 19:26 49.28737 3.33813 10123 ft 270 kts 210°
2026-05-06 19:26 49.27152 3.32238 9927 ft 263 kts 219°
2026-05-06 19:26 49.25678 3.30188 9631 ft 260 kts 226°
2026-05-06 19:26 49.24374 3.28104 9337 ft 258 kts 227°
2026-05-06 19:27 49.23148 3.26161 9153 ft 252 kts 226°
2026-05-06 19:27 49.21928 3.24283 8954 ft 248 kts 226°
2026-05-06 19:27 49.20702 3.22423 8726 ft 245 kts 226°
2026-05-06 19:27 49.19504 3.20611 8485 ft 243 kts 226°
2026-05-06 19:28 49.18304 3.18796 8241 ft 241 kts 226°
2026-05-06 19:28 49.17120 3.17005 8000 ft 240 kts 226°
2026-05-06 19:28 49.15947 3.15231 7748 ft 239 kts 226°
2026-05-06 19:28 49.14767 3.13441 7464 ft 239 kts 226°
2026-05-06 19:29 49.13600 3.11674 7213 ft 238 kts 226°
2026-05-06 19:29 49.12418 3.09893 6951 ft 237 kts 226°
2026-05-06 19:29 49.11207 3.08067 6661 ft 238 kts 226°
2026-05-06 19:29 49.09943 3.06162 6376 ft 237 kts 226°
2026-05-06 19:30 49.08765 3.04377 6211 ft 231 kts 226°
2026-05-06 19:30 49.07629 3.02652 6054 ft 224 kts 227°
2026-05-06 19:30 49.06537 3.00998 5902 ft 218 kts 226°
2026-05-06 19:30 49.05549 2.99293 5729 ft 211 kts 238°
2026-05-06 19:31 49.04969 2.97293 5547 ft 204 kts 258°
2026-05-06 19:31 49.04736 2.95199 5383 ft 200 kts 266°
2026-05-06 19:31 49.04484 2.91032 5118 ft 200 kts 268°
2026-05-06 19:32 49.04368 2.88898 4764 ft 206 kts 269°
2026-05-06 19:32 49.04257 2.86724 4472 ft 208 kts 269°
2026-05-06 19:32 49.04143 2.84527 4175 ft 206 kts 269°
2026-05-06 19:32 49.04036 2.82414 3884 ft 196 kts 269°
2026-05-06 19:33 49.03931 2.80379 3604 ft 191 kts 270°
2026-05-06 19:33 49.03831 2.78366 3330 ft 192 kts 270°
2026-05-06 19:33 49.03730 2.76368 3068 ft 191 kts 270°
2026-05-06 19:33 49.03626 2.74363 2798 ft 190 kts 270°
2026-05-06 19:34 49.03521 2.72393 2557 ft 179 kts 270°
2026-05-06 19:34 49.03424 2.70544 2274 ft 172 kts 270°
2026-05-06 19:34 49.03333 2.68763 2055 ft 166 kts 271°
2026-05-06 19:34 49.03243 2.67050 1857 ft 154 kts 271°
2026-05-06 19:35 49.03160 2.65458 1657 ft 147 kts 271°
2026-05-06 19:35 49.03081 2.63894 1425 ft 148 kts 271°
2026-05-06 19:35 49.03007 2.62335 1226 ft 150 kts 271°
2026-05-06 19:35 49.02925 2.60772 1022 ft 144 kts 269°
2026-05-06 19:36 49.02832 2.59274 835 ft 141 kts 269°
2026-05-06 19:36 49.02760 2.57771 644 ft 143 kts 270°
2026-05-06 19:36 49.02671 2.56234 448 ft 145 kts 268°
2026-05-06 19:36 49.02586 2.54784 377 ft 119 kts 271°
2026-05-06 19:37 49.02549 2.53891 379 ft 53 kts 267°
2026-05-06 19:37 49.02513 2.53519 376 ft 30 kts 248°
2026-05-06 19:37 49.02404 2.53243 376 ft 30 kts 236°
2026-05-06 19:37 49.02326 2.53078 376 ft 24 kts 227°
2026-05-06 19:38 49.02114 2.53016 374 ft 25 kts 174°
2026-05-06 19:38 49.01929 2.53034 368 ft 25 kts 175°
2026-05-06 19:38 49.01846 2.53181 367 ft 21 kts 86°
2026-05-06 19:38 49.01859 2.53412 365 ft 22 kts 85°
2026-05-06 19:39 49.01794 2.53618 362 ft 23 kts 118°
2026-05-06 19:39 49.01793 2.53861 363 ft 23 kts 83°
2026-05-06 19:39 49.01811 2.54103 365 ft 22 kts 85°
2026-05-06 19:39 49.01819 2.54331 366 ft 21 kts 85°
2026-05-06 19:40 49.01835 2.54565 366 ft 22 kts 85°
2026-05-06 19:40 49.01844 2.54800 369 ft 21 kts 87°
2026-05-06 19:40 49.01857 2.55042 370 ft 25 kts 85°
2026-05-06 19:40 49.01872 2.55333 370 ft 29 kts 84°
2026-05-06 19:41 49.01892 2.55684 369 ft 33 kts 86°
2026-05-06 19:41 49.01911 2.56077 371 ft 33 kts 85°
2026-05-06 19:41 49.01932 2.56451 372 ft 29 kts 86°
2026-05-06 19:41 49.01947 2.56749 370 ft 25 kts 85°
2026-05-06 19:42 49.01964 2.57048 365 ft 28 kts 85°
2026-05-06 19:42 49.01981 2.57364 363 ft 29 kts 85°
2026-05-06 19:42 49.01997 2.57682 363 ft 29 kts 88°
2026-05-06 19:42 49.01899 2.57958 359 ft 30 kts 154°
2026-05-06 19:43 49.01682 2.58004 353 ft 32 kts 175°
2026-05-06 19:43 49.01445 2.58035 346 ft 35 kts 178°
2026-05-06 19:43 49.01205 2.58066 345 ft 34 kts 177°
2026-05-06 19:43 49.01013 2.58088 345 ft 25 kts 175°
2026-05-06 19:44 49.00898 2.57963 347 ft 23 kts 267°
2026-05-06 19:44 49.00877 2.57763 351 ft 18 kts 231°
2026-05-06 19:44 49.00783 2.57693 350 ft 13 kts 206°
2026-05-06 19:44 49.00711 2.57667 350 ft 6 kts 177°
2026-05-06 19:45 49.00678 2.57642 350 ft 5 kts 245°
2026-05-06 19:45 49.00665 2.57595 351 ft 3 kts 248°
2026-05-06 19:45 49.00661 2.57581 351 ft 0 kts 249°